DW2770 Weather Reports


Display with metric or nautical units.
time (UTC)temp
F
wind
direction
speed
MPH
gust
MPH
rain 1hr
in
rain 24hr
in
rain mn
in
humidity
%
barometer
mb
20260505100004 68 82 4.0 8.0 0.00 0.00 0.00 69 1016.2
20260505094506 67 77 4.0 9.0 0.00 0.00 0.00 71 1016.3
20260505093020 68 115 3.0 9.0 0.00 0.00 0.00 69 1016.2
20260505091513 67 106 4.0 8.0 0.00 0.00 0.00 68 1016.4
20260505090021 67 85 4.0 7.0 0.00 0.00 0.00 67 1016.5
20260505084508 66 112 3.0 6.0 0.00 0.00 0.00 66 1016.6
20260505083009 67 63 2.0 6.0 0.00 0.00 0.00 67 1016.4
20260505081512 67 84 2.0 6.0 0.00 0.00 0.00 62 1016.4
20260505080018 67 92 3.0 6.0 0.00 0.00 0.00 59 1016.3
20260505074524 67 90 3.0 5.0 0.00 0.00 0.00 58 1016.2
20260505073008 67 78 1.0 3.0 0.00 0.00 0.00 59 1016.5
20260505071511 67 308 1.0 3.0 0.00 0.00 0.00 62 1016.5
20260505070017 67 300 0.0 2.0 0.00 0.00 0.00 61 1016.3
20260505064524 67 346 0.0 2.0 0.00 0.00 0.00 62 1016.4
20260505063026 65 282 0.0 2.0 0.00 0.00 0.00 66 1016.4
20260505061512 65 257 1.0 4.0 0.00 0.00 0.00 67 1016.5
20260505060024 64 285 0.0 0.0 0.00 0.00 0.00 67 1016.4
20260505054532 64 254 0.0 0.0 0.00 0.00 0.00 68 1016.2
20260505053023 63 196 0.0 0.0 0.00 0.00 0.00 69 1016.2
20260505051524 63 175 0.0 1.0 0.00 0.00 0.00 69 1016.1
20260505041509 61 203 0.0 2.0 0.00 0.00 0.00 68 1016.0
20260505040013 61 190 1.0 4.0 0.00 0.00 0.00 69 1016.0
20260505034521 61 190 0.0 4.0 0.00 0.00 0.00 69 1015.9
20260505033010 61 199 2.0 4.0 0.00 0.00 0.00 70 1015.9
20260505031504 61 196 0.0 0.0 0.00 0.00 0.00 73 1015.8
20260505030012 61 111 0.0 0.0 0.00 0.00 0.00 75 1015.8
20260505024513 61 105 0.0 0.0 0.00 0.00 0.00 74 1015.8
20260505023022 61 221 0.0 0.0 0.00 0.00 0.00 76 1015.9
20260505021506 61 252 0.0 0.0 0.00 0.00 0.00 77 1016.0
20260505020008 61 264 0.0 0.0 0.00 0.00 0.00 76 1016.0
20260505014511 61 84 0.0 1.0 0.00 0.00 0.00 79 1015.9
20260505013019 61 94 0.0 3.0 0.00 0.00 0.00 77 1016.0
20260505004519 61 171 0.0 0.0 0.00 0.00 0.00 70 1016.0
20260505003016 61 165 0.0 0.0 0.00 0.00 0.00 68 1016.3
20260504234510 61 195 0.0 0.0 0.00 0.00 0.00 67 1016.8
20260504233012 61 190 0.0 0.0 0.00 0.00 0.00 69 1016.9
20260504231532 61 162 0.0 2.0 0.00 0.00 0.00 63 1017.1
20260504230003 61 194 2.0 4.0 0.00 0.00 0.00 66 1017.3
20260504224505 61 192 0.0 2.0 0.00 0.00 0.00 64 1017.5
20260504223010 61 206 0.0 2.0 0.00 0.00 0.00 65 1017.4
20260504221516 62 201 1.0 3.0 0.00 0.00 0.00 63 1017.4
20260504220020 62 196 0.0 2.0 0.00 0.00 0.00 63 1017.5
20260504214509 62 202 1.0 4.0 0.00 0.00 0.00 65 1017.6
20260504213009 62 144 0.0 0.0 0.00 0.00 0.00 74 1017.8
20260504211513 62 195 0.0 2.0 0.00 0.00 0.00 74 1017.9
20260504210020 62 113 0.0 2.0 0.00 0.00 0.00 74 1017.9
20260504204549 62 100 1.0 4.0 0.00 0.00 0.00 74 1017.6
20260504203028 62 102 2.0 4.0 0.00 0.00 0.00 73 1017.5
20260504201511 62 92 0.0 2.0 0.00 0.00 0.00 69 1017.7
20260504200025 63 90 0.0 1.0 0.00 0.00 0.00 73 1017.8
20260504194521 62 155 0.0 0.0 0.00 0.00 0.00 70 1017.9
20260504193025 62 161 0.0 0.0 0.00 0.00 0.00 68 1017.9
20260504191525 62 106 0.0 0.0 0.00 0.00 0.00 70 1017.9
20260504190016 63 100 0.0 3.0 0.00 0.00 0.00 73 1017.8
20260504184519 63 117 1.0 3.0 0.00 0.00 0.00 74 1017.6
20260504183026 63 82 2.0 6.0 0.00 0.00 0.00 74 1017.5
20260504181526 63 125 1.0 4.0 0.00 0.00 0.00 74 1017.5
20260504180025 63 89 2.0 6.0 0.00 0.00 0.00 73 1017.5
20260504174516 63 123 2.0 6.0 0.00 0.00 0.00 73 1017.5
20260504173020 64 88 2.0 6.0 0.00 0.00 0.00 72 1017.3
20260504171535 64 75 2.0 6.0 0.00 0.00 0.00 72 1017.1